Weather History for Concord, NH

Change the Weather History Date:

Sunday, June 23, 2013

  Actual Average Record
Temperature  
Mean Temperature 78 °F 67 °F  
Max Temperature 91 °F 79 °F 94 °F (1975)
Min Temperature 64 °F 55 °F 39 °F (1940)
Degree Days  
Heating Degree Days 0 2  
Month to date heating degree days 72 77  
Since 1 June heating degree days 72 77  
Since 1 July heating degree days 6845 7227  
Cooling Degree Days 13 4  
Month to date cooling degree days 54 54  
Year to date cooling degree days 75 72  
Since 1 June cooling degree days 54 54  
Growing Degree Days 28 (Base 50)    
Moisture  
Dew Point 67 °F    
Average Humidity 76    
Maximum Humidity 100    
Minimum Humidity 52    
Precipitation  
Precipitation 0.04 in 0.11 in 1.26 in (1951)
Month to date precipitation 4.93 2.91  
Year to date precipitation 17.69 18.57  
Snow  
Snow 0.00 in 0.00 in 0.00 in (2002)
Month to date snowfall 0.0 0.0  
Since 1 June snowfall 0.0 0.0  
Since 1 July snowfall 83.4 61.4  
Snow Depth 0.00 in    
Sea Level Pressure  
Sea Level Pressure 30.05 in    
Wind  
Wind Speed 3 mph (SSE)    
Max Wind Speed 14 mph    
Max Gust Speed 20 mph    
Visibility 9 miles    
Events Rain , Thunderstorm    
T = Trace of Precipitation, MM = Missing Value Source: NWS Daily Summary

Daily Weather History Graph

Daily Weather History Graph

Search for Another Location

Airport:

Trip Planner

Search our weather history database for the weather conditions in past years. The results will help you decide how hot, cold, wet, or windy it might be!

Date:

Astronomy

Jun. 23, 2013 Rise Set
Actual Time 5:06 AM EDT 8:29 PM EDT
Civil Twilight 4:31 AM EDT 9:05 PM EDT
Nautical Twilight 3:44 AM EDT 9:51 PM EDT
Astronomical Twilight 2:46 AM EDT 10:49 PM EDT
Moon 8:36 PM EDT (6/23) 5:22 AM EDT (6/23)
Length of Visible Light 16h 34m
Length of Day
15h 23m
Full, 100% of the Moon is Illuminated
Jun 23
Full
Jun 30
Last Quarter
Jul 8
New
Jul 15
First Quarter
Jul 22
Full

Hourly Weather History & Observations

Time (EDT) Temp. Heat Index Dew Point Humidity Pressure Visibility Wind Dir Wind Speed Gust Speed Precip Events Conditions
12:51 AM 66.9 °F - 66.0 °F 97% 30.14 in 6.0 mi ESE 3.5 mph - 0.01 in Rain Light Rain
1:51 AM 66.0 °F - 64.9 °F 96% 30.13 in 8.0 mi SSE 3.5 mph - 0.00 in   Overcast
2:51 AM 66.0 °F - 64.0 °F 93% 30.12 in 10.0 mi South 4.6 mph - N/A   Overcast
3:51 AM 64.9 °F - 64.0 °F 97% 30.10 in 8.0 mi SSE 4.6 mph - N/A   Clear
4:51 AM 64.0 °F - 63.0 °F 96% 30.10 in 6.0 mi Calm Calm - N/A   Partly Cloudy
5:51 AM 64.0 °F - 63.0 °F 96% 30.11 in 7.0 mi Calm Calm - N/A   Overcast
6:51 AM 66.0 °F - 64.0 °F 93% 30.11 in 10.0 mi Calm Calm - N/A   Mostly Cloudy
7:51 AM 68.0 °F - 63.0 °F 84% 30.13 in 10.0 mi Calm Calm - N/A   Mostly Cloudy
8:51 AM 70.0 °F - 64.0 °F 81% 30.12 in 10.0 mi Calm Calm - N/A   Mostly Cloudy
9:51 AM 73.9 °F - 64.9 °F 73% 30.10 in 10.0 mi SE 3.5 mph - 0.00 in   Partly Cloudy
10:51 AM 73.9 °F - 66.0 °F 76% 30.10 in 10.0 mi SE 3.5 mph - N/A   Mostly Cloudy
11:51 AM 75.0 °F - 68.0 °F 79% 30.09 in 10.0 mi Calm Calm - N/A   Mostly Cloudy
12:51 PM 79.0 °F - 69.1 °F 72% 30.06 in 10.0 mi SE 4.6 mph - N/A   Partly Cloudy
1:51 PM 82.0 °F 85.5 °F 69.1 °F 65% 30.04 in 10.0 mi Variable 5.8 mph - N/A   Clear
2:51 PM 88.0 °F 94.7 °F 72.0 °F 59% 30.01 in 10.0 mi Variable 4.6 mph - N/A   Clear
3:51 PM 90.0 °F 95.4 °F 70.0 °F 52% 29.98 in 10.0 mi SW 6.9 mph - N/A   Partly Cloudy
4:51 PM 88.0 °F 91.4 °F 68.0 °F 51% 29.96 in 10.0 mi SW 9.2 mph - N/A   Mostly Cloudy
5:51 PM 86.0 °F 90.1 °F 69.1 °F 57% 29.95 in 10.0 mi SSW 6.9 mph - N/A   Clear
6:51 PM 84.0 °F 89.0 °F 71.1 °F 65% 29.96 in 10.0 mi South 6.9 mph - N/A   Clear
7:51 PM 82.0 °F 85.9 °F 70.0 °F 67% 29.97 in 10.0 mi South 5.8 mph - N/A   Clear
8:17 PM 80.6 °F 82.7 °F 66.2 °F 61% 30.00 in 10.0 mi North 12.7 mph 19.6 mph N/A Thunderstorm Mostly Cloudy
8:32 PM 78.8 °F - 66.2 °F 65% 30.01 in 10.0 mi North 6.9 mph - N/A   Mostly Cloudy
8:51 PM 77.0 °F - 66.0 °F 69% 30.02 in 10.0 mi NNE 3.5 mph - N/A   Mostly Cloudy
9:51 PM 71.1 °F - 70.0 °F 96% 30.02 in 9.0 mi Calm Calm - 0.04 in Rain Light Rain
10:51 PM 70.0 °F - 70.0 °F 100% 30.01 in 5.0 mi Calm Calm - 0.00 in   Partly Cloudy
11:51 PM 69.1 °F - 69.1 °F 100% 29.99 in 3.0 mi Calm Calm - N/A   Clear